Regional Weather Roundup
Issued by NWS Upton, NY

Current Version | Previous Version | Text Only | Print | Product List | Glossary On
Versions: 1 2 3 4 5 6 7 8 9 10 11 12 13 14 15 16 17 18 19 20 21 22 23 24 25 26 27 28
000 ASUS41 KOKX 280508 RWROKX REGIONAL WEATHER ROUNDUP NATIONAL WEATHER SERVICE NEW YORK NY 100 AM EDT FRI APR 28 2017 NOTE: "FAIR" INDICATES FEW OR NO CLOUDS BELOW 12,000 FEET WITH NO SIGNIFICANT WEATHER AND/OR OBSTRUCTIONS TO VISIBILITY. NYZ071-072-176-178-NJZ106-104-280600- NEW YORK CITY METRO AREA CITY SKY/WX TMP DP RH WIND PRES REMARKS Central Park CLOUDY 57 56 96 CALM 29.90F FOG Wall St Helipt CLOUDY 56 55 97 NE7 29.88F FOG Bronx Bot Gard N/A 57 55 94 E3 29.88F LaGuardia APRT CLOUDY 59 56 89 SE6 29.87F FOG Kennedy INTL FOG 56 56 100 SE8 29.88F VSB 1/4 Breezy Point N/A 52 N/A N/A E7 N/A Newark/Liberty FOG 56 55 97 E6 29.86F VSB 1 Teterboro CLOUDY 59 57 93 SE6 29.86F FOG $$ NYZ177-179-078>081-280600- LONG ISLAND NEW YORK CITY SKY/WX TMP DP RH WIND PRES REMARKS Jones Beach N/A 54 N/A N/A E6 N/A Matinecock PT NOT AVBL Farmingdale CLOUDY 57 57 100 SE5 29.89F FOG MacArthur/ISP CLOUDY 55 55 100 SE6 29.90F FOG Shirley CLOUDY 55 55 100 SE3 29.92F FOG Mt Sinai Harb N/A 55 N/A N/A S5 N/A Westhampton CLOUDY 54 53 97 SE5 29.93F FOG East Hampton CLOUDY 53 52 98 SE5 29.93F FOG Montauk N/A 53 53 100 S5 29.95S $$ NYZ052-065-067-280600- HUDSON VALLEY CITY SKY/WX TMP DP RH WIND PRES REMARKS White Plains DRZL/FOG 58 57 97 E6 29.88S VSB 1/4 Larchmont Harb N/A 52 N/A N/A NE10 N/A Croton O-T Hud N/A 59 N/A N/A CALM N/A Newburgh CLOUDY 59 59 100 SE8 29.89F FOG Montgomery CLOUDY 62 58 86 SE6 29.85F Poughkeepsie CLOUDY 60 57 89 SE5 29.86F Albany CLOUDY 63 56 78 S14 29.84F $$ NJZ001-105-106-008-010-013-015-019>022-104-280600- NEW JERSEY CITY SKY/WX TMP DP RH WIND PRES REMARKS Newark/Liberty FOG 56 55 97 E6 29.86F VSB 1 Teterboro CLOUDY 59 57 93 SE6 29.86F FOG Caldwell CLOUDY 58 57 97 E5 29.87F FOG Somerville CLOUDY 60 58 92 CALM 29.84F Linden CLOUDY 55 54 97 CALM 29.87F FOG Perth Amboy N/A 54 N/A N/A E3 N/A Sussex CLOUDY 59 58 96 CALM 29.86F Andover N/A 59 57 93 CALM 29.85F Trenton CLOUDY 60 59 96 E3 29.85S Millville CLOUDY 65 63 93 VRB3 29.87R Atlantic City CLOUDY 61 57 87 S9 29.87R Wrightstown MOCLDY 64 62 91 S7 29.84R Toms River MOCLDY 63 61 93 S7 29.88R Belmar CLOUDY 56 55 97 E3 29.88S FOG $$ PAZ047>061-062-071-280600- EASTERN PENNSYLVANIA CITY SKY/WX TMP DP RH WIND PRES REMARKS Philadelphia MOCLDY 68 62 81 S5 29.85R Allentown CLOUDY 64 59 83 E6 29.83F Scranton LGT RAIN 69 62 78 S5 29.81R $$ CTZ002-004>006-009-010-012-RIZ004-006-007-MAZ004-011-015-280600- SOUTHERN NEW ENGLAND IN CT CITY SKY/WX TMP DP RH WIND PRES REMARKS Bradley INTL DRIZZLE 58 57 97 S6 29.90F FOG Hartford CLOUDY 59 57 93 S5 29.90F Danbury FOG 57 57 100 VRB3 29.90F VSB 1 Wtrbury/Oxford CLOUDY 57 54 88 S6 29.92S VSB<1/4 Bridgeport FOG 53 51 93 E8 29.91S VSB 1/2 Meriden CLOUDY 59 57 93 CALM 29.90F FOG New Haven FOG 54 54 100 E8 29.91S VSB 3/4 Chester FOG 55 55 100 CALM 29.92F VSB 1/4 Groton FOG 54 53 97 E7 29.93F VSB 3/4 Wilimantic CLOUDY 59 57 93 S3 29.93F FOG IN RI CITY SKY/WX TMP DP RH WIND PRES REMARKS Providence CLOUDY 54 54 100 S7 29.96R FOG Block Island FOG 54 54 100 S10 29.95S VSB 1/2 Westerly CLOUDY 55 55 100 SE6 29.95S FOG IN MA CITY SKY/WX TMP DP RH WIND PRES REMARKS Boston CLOUDY 58 56 93 S6 29.94S Worcester CLOUDY 55 54 96 S6 29.93F FOG Westfield CLOUDY 58 58 100 S6 29.90S FOG Provincetown CLOUDY 53 52 96 S8 29.97R Nantucket FOG 50 49 96 SE5 29.98S VSB 3/4 $$ ANZ330-335-338-340-345-350-353-355-280600- COASTAL MARINE OBSERVATIONS STATION/POSITION TIME SKY/WX TEMP WIND PRES VSBY WAVE AIR SEA DIR/SP/G HT/PER (UTC) (F) (DEG/KT/KT) (MB) (MI) (FT/S) NY HARB ENTRANCE 0350 52 49 140/ 8/ 10 1011.9 4/10 20 S FIRE ISLAND 0450 53 48 180/ 12/ 12 1011.7 4/10 GREAT SOUTH BAY 0430 55 57 90/ 4/ 6 N/A 23 SSW MONTAUK P 0350 50 47 1013.9 5/10 15 E BARNEGAT LI 0430 51 N/A 5/10 HUDSON CANYON 0350 54 50 180/ 10/ 10 1013.3 6/10 KINGS POINT 0448 56 50 190/ 3/ 4 1011.6 EXECUTION ROCKS NOT AVBL CENTRAL LI SOUND 0445 47 90/ 8/ 10 N/A 0 EASTERN LI SOUND NOT AVBL ROBBINS REEF 0448 55 80/ 5/ 6 1011.7 $$ >>>>>>>>>>>>>>>>>>>>>>>>>>>> KEY <<<<<<<<<<<<<<<<<<<<<<<<<<< > < > SKY/WX - Sky Condition/Present Weather < > TMP - Temperature in Fahrenheit < > DP - Dew Point in Fahrenheit < > RH - Relative Humidity in Percent < > WIND - Direction (from) and Speed in MPH < > PRES - Mean Sea Level Pressure (inches of Hg) < > WCI - Wind Chill Index < > VSB - VISIBILITY IN MILES < > HX - HEAT INDEX < > TC - TEMPERATURE IN CELSIUS < > VRB - VARIABLE WIND DIRECTION < > < >>>>>>>>>>>>>>>>>>>>>>>>>>>> KEY <<<<<<<<<<<<<<<<<<<<<<<<<<<

USA.gov is the U.S. government's official web portal to all federal, state and local government web resources and services.